SM7GXQ Weather Reports


Display with metric or nautical units.
time (UTC)temp
F
wind
direction
speed
MPH
gust
MPH
rain 1hr
in
rain 24hr
in
rain mn
in
humidity
%
barometer
mb
20260903100004 65 207 2.0 8.0 0.00 0.00 0.00 78 1009.5
20260903084504 62 216 3.0 9.0 0.00 0.00 0.00 82 1010.1
20260903083005 61 229 3.0 8.0 0.00 0.00 0.00 83 1010.1
20260903071504 60 200 3.0 8.0 0.00 0.00 0.00 85 1010.6
20260903063005 60 230 3.0 9.0 0.00 0.00 0.00 85 1010.7
20260903054504 59 222 4.0 9.0 0.00 0.00 0.00 87 1010.7
20260903053005 59 233 3.0 8.0 0.00 0.00 0.00 87 1010.7
20260903051505 58 232 4.0 10.0 0.00 0.00 0.00 87 1010.7
20260903044504 58 253 3.0 8.0 0.00 0.00 0.00 88 1010.6
20260903041504 58 188 2.0 7.0 0.00 0.00 0.00 91 1010.7
20260903034504 58 238 2.0 7.0 0.00 0.00 0.00 91 1010.8
20260903030004 59 211 1.0 10.0 0.00 0.00 0.00 90 1010.9
20260903024504 59 236 3.0 12.0 0.00 0.00 0.00 90 1010.9
20260903014504 60 249 2.0 8.0 0.00 0.00 0.00 90 1010.9
20260903011504 60 233 2.0 6.0 0.00 0.00 0.00 90 1011.0
20260903004504 60 247 1.0 8.0 0.00 0.00 0.00 90 1011.0
20260903001505 60 212 2.0 8.0 0.00 0.00 0.00 90 1011.0
20260902223004 61 218 3.0 9.0 0.00 0.00 0.00 89 1011.0
20260902221505 61 230 3.0 10.0 0.00 0.00 0.00 89 1011.0
20260902214504 62 244 2.0 9.0 0.00 0.00 0.00 88 1011.0
20260902211504 62 248 2.0 10.0 0.00 0.00 0.00 88 1010.8
20260902204504 62 266 2.0 6.0 0.00 0.00 0.00 87 1010.8
20260902203005 62 245 1.0 10.0 0.00 0.00 0.00 86 1010.8
20260902201505 62 258 2.0 9.0 0.00 0.00 0.00 86 1010.8
20260902200004 63 209 3.0 10.0 0.00 0.00 0.00 86 1010.9
20260902194505 63 204 2.0 13.0 0.00 0.00 0.00 85 1010.8
20260902190004 63 210 5.0 14.0 0.00 0.00 0.00 84 1010.8
20260902181504 64 247 2.0 12.0 0.00 0.00 0.00 85 1010.7
20260902180007 64 228 3.0 12.0 0.00 0.00 0.00 85 1010.7
20260902174504 65 226 3.0 10.0 0.00 0.00 0.00 84 1010.5
20260902170004 66 189 1.0 9.0 0.00 0.00 0.00 82 1010.6
20260902161504 67 199 3.0 9.0 0.00 0.00 0.00 80 1010.6
20260902153005 69 195 4.0 10.0 0.00 0.00 0.00 79 1010.6
20260902151504 69 212 4.0 9.0 0.00 0.01 0.00 79 1010.7
20260902144504 71 236 3.0 12.0 0.00 0.01 0.00 70 1010.8
20260902143005 72 206 4.0 12.0 0.00 0.01 0.00 70 1010.7
20260902141504 72 241 2.0 10.0 0.00 0.01 0.00 70 1010.8
20260902131504 71 204 4.0 12.0 0.00 0.02 0.00 74 1010.8
20260902130004 71 199 3.0 14.0 0.00 0.02 0.00 75 1011.1
20260902124504 71 215 2.0 8.0 0.00 0.02 0.00 74 1011.1
20260902123005 71 198 2.0 9.0 0.00 0.02 0.00 73 1011.4
20260902120004 70 241 3.0 10.0 0.00 0.02 0.00 74 1011.4
20260902114505 69 232 4.0 9.0 0.00 0.02 0.00 76 1011.7
20260902113005 68 259 3.0 9.0 0.00 0.02 0.00 76 1011.8
20260902111504 68 227 3.0 9.0 0.00 0.02 0.00 77 1011.8
20260902101505 65 238 2.0 9.0 0.00 0.02 0.00 82 1012.1